Location: Melbourne
(37.8170°S, 144.9670°E)
Time: 06:57:54
(UTC+11:00)

ISS - All Passes

Search period start: 20 October 2017 00:00
Search period end: 30 October 2017 00:00
Orbit: 401 x 408 km, 51.6° (Epoch: 20 October)

Date Brightness Start Highest point End Pass type
(mag) Time Alt. Az. Time Alt. Az. Time Alt. Az.
20 Oct - 00:33:54 10° WSW 00:36:20 18° SSW 00:38:46 10° SSE night (unlit)
20 Oct - 03:50:48 10° S 03:51:45 11° SSE 03:52:41 10° SSE visible
20 Oct - 05:25:47 10° SW 05:28:59 39° SE 05:32:07 10° ENE visible
20 Oct - 07:02:48 10° W 07:05:15 19° NW 07:07:41 10° N daylight
20 Oct - 22:04:25 10° NNW 22:07:23 31° NE 22:10:24 10° ESE night (unlit)
20 Oct - 23:40:56 10° W 23:43:52 28° SSW 23:46:50 10° SSE night (unlit)
21 Oct - 04:33:46 10° SSW 04:36:34 24° SSE 04:39:21 10° E visible
21 Oct - 06:10:01 10° WSW 06:13:08 38° NW 06:16:14 10° NNE daylight
21 Oct - 21:13:12 10° NNE 21:15:17 16° NE 21:17:22 10° E night (unlit)
21 Oct - 22:48:13 10° WNW 22:51:28 48° SW 22:54:46 10° SE night (unlit)
22 Oct - 00:27:15 10° SW 00:28:37 12° SSW 00:29:59 10° S night (unlit)
22 Oct - 03:41:51 10° SSW 03:44:04 16° SSE 03:46:16 10° ESE visible
22 Oct - 05:17:34 10° SW 05:20:56 83° NW 05:24:14 10° NE visible
22 Oct - 21:55:49 10° NW 21:59:09 84° NE 22:02:32 10° SE visible
22 Oct - 23:33:49 10° WSW 23:36:01 16° SSW 23:38:14 10° SSE night (unlit)
23 Oct - 02:50:06 10° S 02:51:29 12° SSE 02:52:50 10° SE visible
23 Oct - 04:25:20 10° SW 04:28:36 49° SE 04:31:51 10° ENE visible
23 Oct - 06:02:46 10° W 06:04:47 15° NW 06:06:46 10° NNW daylight
23 Oct - 21:03:47 10° NNW 21:06:55 39° NE 21:10:05 10° ESE visible
23 Oct - 22:40:42 10° W 22:43:29 24° SSW 22:46:18 10° SSE visible
24 Oct - 03:33:14 10° SSW 03:36:11 28° SSE 03:39:08 10° E visible
24 Oct - 05:09:41 10° WSW 05:12:39 30° NW 05:15:35 10° NNE visible
24 Oct - 20:12:15 10° N 20:14:45 20° NE 20:17:16 10° E visible
24 Oct - 21:47:52 10° WNW 21:51:02 39° SW 21:54:14 10° SE visible
24 Oct - 23:27:19 10° SSW 23:28:16 11° SSW 23:29:13 10° S visible
25 Oct - 02:41:13 10° SSW 02:43:40 18° SSE 02:46:07 10° ESE night (unlit)
25 Oct - 04:17:07 10° SW 04:20:26 63° NW 04:23:42 10° NE visible
25 Oct - 20:55:19 10° NW 20:58:39 76° SW 21:02:01 10° SE visible
25 Oct - 22:33:40 10° WSW 22:35:36 14° SSW 22:37:34 10° SSE visible
26 Oct - 01:49:22 10° S 01:51:05 13° SSE 01:52:47 10° SE night (unlit)
26 Oct - 03:24:47 10° SW 03:28:07 62° SE 03:31:25 10° ENE night (unlit)
26 Oct - 05:02:52 10° WNW 05:04:11 12° NW 05:05:29 10° NNW night (unlit)
26 Oct - 20:03:06 10° NNW 20:06:20 51° NE 20:09:37 10° ESE daylight
26 Oct - 21:40:25 10° WSW 21:43:01 21° SSW 21:45:38 10° SSE visible
27 Oct - 00:57:59 10° S 00:58:23 10° SSE 00:58:47 10° SSE night (unlit)
27 Oct - 02:32:35 10° SW 02:35:41 33° SSE 02:38:45 10° E night (unlit)
27 Oct - 04:09:19 10° WSW 04:12:03 24° NW 04:14:45 10° N night (unlit)
27 Oct - 19:11:20 10° N 19:14:06 25° NE 19:16:54 10° ESE daylight
27 Oct - 20:47:26 10° W 20:50:30 32° SSW 20:53:34 10° SSE visible
27 Oct - 22:27:41 10° SSW 22:27:48 10° SSW 22:27:56 10° S visible
28 Oct - 01:40:31 10° SSW 01:43:10 21° SSE 01:45:48 10° E night (unlit)
28 Oct - 03:16:34 10° WSW 03:19:49 48° NW 03:23:01 10° NNE night (unlit)
28 Oct - 18:20:25 10° NNE 18:21:57 13° NE 18:23:28 10° E daylight
28 Oct - 19:54:44 10° WNW 19:58:02 59° SW 20:01:23 10° SE daylight
28 Oct - 21:33:26 10° SW 21:35:06 13° SSW 21:36:45 10° S visible
29 Oct - 00:48:33 10° SSW 00:50:33 15° SSE 00:52:32 10° ESE night (unlit)
29 Oct - 02:24:08 10° SW 02:27:29 79° SE 02:30:49 10° NE night (unlit)
29 Oct - 19:02:22 10° NW 19:05:40 67° NE 19:09:00 10° SE daylight
29 Oct - 20:40:02 10° WSW 20:42:26 18° SSW 20:44:51 10° SSE visible
29 Oct - 23:56:49 10° S 23:57:51 11° SSE 23:58:52 10° SSE visible
